Back to catalog

HELIOS 1 DEB

unknownMEO
NORAD 7570·DEBRIS·🇩🇪 Germany

Launched Dec 10, 1974 from Cape Canaveral Space Force Station

Loading…

Next Passes (next 24 hours)

TLE

StaleSource: Space-Track

Epoch: Dec 30, 1969, 23:59 UTC

1 07570U 74097D   69364.99988426 -.00000187 +00000-0 +00000-0 0  9996
2 07570 000.0000 000.0000 0000000 000.0000 000.0000 00.34486728000003

Track HELIOS 1 DEB in real time with AllMySat

Download on the App Store